When you browse on this site, cookies collect data to enhance your experience and personalize the content and advertising you see.
Visit our Privacy Policy to learn more. By continuing to use the site, you agree to this use of cookies and data.
EN

Hourly Weather Rostock

Today, 2 July, Thursday

Time Temperature Precipitation Wind Pressure Humidity
00:00 +14°C° 0.1 mm 5 mps 752 mmHg 95%
01:00 +14°C° 0 mm 5 mps 752 mmHg 95%
02:00 +14°C° 0 mm 5 mps 753 mmHg 95%
03:00 +13°C° 0 mm 5 mps 753 mmHg 96%
04:00 +13°C° 0 mm 6 mps 753 mmHg 96%
05:00 +14°C° 0 mm 6 mps 753 mmHg 94%
06:00 +14°C° 0 mm 6 mps 754 mmHg 92%
07:00 +15°C° 0 mm 6 mps 754 mmHg 90%
08:00 +16°C° 0.1 mm 6 mps 754 mmHg 86%
09:00 +17°C° 0.1 mm 6 mps 755 mmHg 83%
10:00 +19°C° 0.1 mm 6 mps 755 mmHg 79%
11:00 +20°C° 0.2 mm 5 mps 755 mmHg 77%
12:00 +20°C° 0.2 mm 5 mps 755 mmHg 75%
13:00 +21°C° 0.2 mm 4 mps 755 mmHg 73%
14:00 +21°C° 0.5 mm 4 mps 755 mmHg 74%
15:00 +21°C° 0.5 mm 3 mps 755 mmHg 74%
16:00 +21°C° 0.5 mm 2 mps 755 mmHg 74%
17:00 +21°C° 0.4 mm 2 mps 755 mmHg 78%
18:00 +20°C° 0.4 mm 2 mps 755 mmHg 81%
19:00 +20°C° 0.4 mm 1 mps 755 mmHg 84%
20:00 +19°C° 0.2 mm 1 mps 755 mmHg 86%
21:00 +16°C° 0.2 mm 2 mps 756 mmHg 88%
22:00 +15°C° 0.2 mm 2 mps 756 mmHg 90%
23:00 +15°C° 0.1 mm 2 mps 756 mmHg 90%

Tomorrow, 3 July, Friday

Time Temperature Precipitation Wind Pressure Humidity
00:00 +14°C° 0.1 mm 2 mps 756 mmHg 90%
01:00 +14°C° 0.1 mm 2 mps 757 mmHg 90%
02:00 +14°C° 0.1 mm 2 mps 757 mmHg 90%
03:00 +13°C° 0.1 mm 3 mps 757 mmHg 90%
04:00 +14°C° 0.1 mm 3 mps 757 mmHg 91%
05:00 +14°C° 0 mm 3 mps 758 mmHg 88%
06:00 +16°C° 0 mm 2 mps 758 mmHg 86%
07:00 +16°C° 0 mm 2 mps 758 mmHg 83%
08:00 +17°C° 0 mm 3 mps 759 mmHg 79%
09:00 +18°C° 0 mm 3 mps 759 mmHg 75%
10:00 +18°C° 0 mm 3 mps 759 mmHg 71%
11:00 +19°C° 0 mm 4 mps 759 mmHg 69%
12:00 +20°C° 0 mm 4 mps 759 mmHg 67%
13:00 +21°C° 0 mm 4 mps 759 mmHg 65%
14:00 +21°C° 0.1 mm 4 mps 759 mmHg 67%
15:00 +20°C° 0.1 mm 3 mps 759 mmHg 70%
16:00 +20°C° 0.1 mm 3 mps 758 mmHg 73%
17:00 +20°C° 0.1 mm 3 mps 758 mmHg 77%
18:00 +19°C° 0.1 mm 3 mps 758 mmHg 80%
19:00 +19°C° 0.1 mm 3 mps 758 mmHg 84%
20:00 +18°C° 0 mm 3 mps 759 mmHg 87%
21:00 +17°C° 0 mm 4 mps 759 mmHg 90%
22:00 +15°C° 0 mm 4 mps 759 mmHg 93%
23:00 +15°C° 0 mm 4 mps 759 mmHg 93%

Day after tomorrow, 4 July, Saturday

Time Temperature Precipitation Wind Pressure Humidity
00:00 +15°C° 0 mm 5 mps 759 mmHg 92%
01:00 +15°C° 0 mm 5 mps 759 mmHg 92%
02:00 +15°C° 0 mm 6 mps 759 mmHg 91%
03:00 +15°C° 0 mm 6 mps 758 mmHg 89%
04:00 +14°C° 0 mm 7 mps 758 mmHg 87%
05:00 +15°C° 0 mm 7 mps 758 mmHg 85%
06:00 +15°C° 0 mm 7 mps 758 mmHg 82%
07:00 +15°C° 0 mm 8 mps 758 mmHg 80%
08:00 +15°C° 0.1 mm 8 mps 758 mmHg 81%
09:00 +15°C° 0.1 mm 7 mps 759 mmHg 83%
10:00 +15°C° 0.1 mm 7 mps 759 mmHg 85%
11:00 +16°C° 0 mm 7 mps 759 mmHg 83%
12:00 +16°C° 0 mm 7 mps 759 mmHg 82%
13:00 +17°C° 0 mm 7 mps 759 mmHg 80%
14:00 +18°C° 0 mm 7 mps 759 mmHg 80%
15:00 +18°C° 0 mm 7 mps 758 mmHg 80%
16:00 +20°C° 0 mm 7 mps 758 mmHg 79%
17:00 +18°C° 0.1 mm 7 mps 758 mmHg 80%
18:00 +18°C° 0.1 mm 7 mps 758 mmHg 81%
19:00 +17°C° 0.1 mm 7 mps 758 mmHg 82%
20:00 +17°C° 0.3 mm 7 mps 758 mmHg 84%
21:00 +17°C° 0.3 mm 7 mps 758 mmHg 86%
22:00 +16°C° 0.3 mm 7 mps 757 mmHg 88%
23:00 +16°C° 0.1 mm 8 mps 757 mmHg 88%

5 July, Sunday

Time Temperature Precipitation Wind Pressure Humidity
00:00 +16°C° 0.1 mm 8 mps 757 mmHg 89%
01:00 +16°C° 0.1 mm 8 mps 756 mmHg 89%
02:00 +16°C° 0 mm 8 mps 756 mmHg 90%
03:00 +16°C° 0 mm 7 mps 756 mmHg 91%
04:00 +17°C° 0 mm 7 mps 756 mmHg 92%
05:00 +17°C° 0.1 mm 7 mps 755 mmHg 92%
06:00 +17°C° 0.1 mm 7 mps 755 mmHg 92%
07:00 +17°C° 0.1 mm 7 mps 755 mmHg 92%
08:00 +18°C° 0.1 mm 7 mps 755 mmHg 91%
09:00 +18°C° 0.1 mm 7 mps 755 mmHg 90%
10:00 +20°C° 0.1 mm 8 mps 755 mmHg 89%
11:00 +20°C° 0.2 mm 8 mps 755 mmHg 89%
12:00 +20°C° 0.2 mm 8 mps 754 mmHg 88%
13:00 +19°C° 0.2 mm 9 mps 754 mmHg 87%
14:00 +19°C° 0.1 mm 9 mps 754 mmHg 85%
15:00 +19°C° 0.1 mm 9 mps 754 mmHg 83%
16:00 +19°C° 0.1 mm 9 mps 753 mmHg 81%
17:00 +19°C° 0.3 mm 9 mps 753 mmHg 83%
18:00 +18°C° 0.3 mm 9 mps 753 mmHg 85%
19:00 +18°C° 0.3 mm 9 mps 753 mmHg 87%
20:00 +18°C° 0.4 mm 9 mps 753 mmHg 89%
21:00 +17°C° 0.4 mm 8 mps 753 mmHg 90%
22:00 +17°C° 0.4 mm 8 mps 753 mmHg 91%
23:00 +16°C° 0.1 mm 7 mps 753 mmHg 92%

6 July, Monday

Time Temperature Precipitation Wind Pressure Humidity
00:00 +16°C° 0.1 mm 7 mps 753 mmHg 93%
01:00 +16°C° 0.1 mm 6 mps 754 mmHg 94%
02:00 +15°C° 0.1 mm 5 mps 753 mmHg 94%
03:00 +15°C° 0.1 mm 5 mps 753 mmHg 95%
04:00 +15°C° 0.1 mm 4 mps 753 mmHg 95%
05:00 +15°C° 0.2 mm 5 mps 753 mmHg 94%
06:00 +15°C° 0.2 mm 5 mps 753 mmHg 93%
07:00 +15°C° 0.2 mm 6 mps 753 mmHg 92%
08:00 +16°C° 0.2 mm 7 mps 753 mmHg 85%
09:00 +17°C° 0.2 mm 8 mps 753 mmHg 78%
10:00 +18°C° 0.2 mm 9 mps 754 mmHg 72%
11:00 +18°C° 0.1 mm 9 mps 754 mmHg 67%
12:00 +19°C° 0.1 mm 9 mps 754 mmHg 62%
13:00 +19°C° 0.1 mm 9 mps 754 mmHg 58%
14:00 +18°C° 0.3 mm 9 mps 754 mmHg 63%
15:00 +17°C° 0.3 mm 9 mps 755 mmHg 68%
16:00 +16°C° 0.3 mm 9 mps 755 mmHg 73%
17:00 +16°C° 0.1 mm 8 mps 755 mmHg 74%
18:00 +15°C° 0.1 mm 8 mps 755 mmHg 75%
19:00 +15°C° 0.1 mm 8 mps 756 mmHg 75%
20:00 +13°C° 0 mm 8 mps 756 mmHg 77%
21:00 +12°C° 0 mm 8 mps 756 mmHg 79%
22:00 +11°C° 0 mm 7 mps 757 mmHg 81%
23:00 +11°C° 0.1 mm 7 mps 757 mmHg 84%

7 July, Tuesday

Time Temperature Precipitation Wind Pressure Humidity
00:00 +10°C° 0.1 mm 7 mps 757 mmHg 87%
01:00 +10°C° 0.1 mm 6 mps 758 mmHg 90%
02:00 +10°C° 0.1 mm 6 mps 758 mmHg 91%
03:00 +9°C° 0.1 mm 6 mps 758 mmHg 92%
04:00 +9°C° 0.1 mm 6 mps 758 mmHg 94%
05:00 +10°C° 0.1 mm 6 mps 759 mmHg 88%
06:00 +11°C° 0.1 mm 6 mps 759 mmHg 82%
07:00 +14°C° 0.1 mm 7 mps 760 mmHg 76%
08:00 +14°C° 0.1 mm 7 mps 760 mmHg 72%
09:00 +15°C° 0.1 mm 7 mps 761 mmHg 67%
10:00 +15°C° 0.1 mm 7 mps 761 mmHg 63%
11:00 +16°C° 0.1 mm 7 mps 761 mmHg 62%
12:00 +16°C° 0.1 mm 7 mps 761 mmHg 61%
13:00 +16°C° 0.1 mm 8 mps 762 mmHg 60%
14:00 +16°C° 0.1 mm 7 mps 762 mmHg 62%
15:00 +15°C° 0.1 mm 7 mps 762 mmHg 65%
16:00 +15°C° 0.1 mm 7 mps 762 mmHg 68%
17:00 +15°C° 0.1 mm 7 mps 763 mmHg 70%
18:00 +14°C° 0.1 mm 7 mps 763 mmHg 72%
19:00 +14°C° 0.1 mm 6 mps 763 mmHg 74%
20:00 +13°C° 0.1 mm 6 mps 763 mmHg 77%
21:00 +11°C° 0.1 mm 6 mps 764 mmHg 80%
22:00 +10°C° 0.1 mm 5 mps 764 mmHg 83%
23:00 +9°C° 0.1 mm 5 mps 764 mmHg 85%
Show more